Regional Weather Roundup
Issued by NWS

Home | Current Version | Previous Version | Graphics & Text | Print | Product List | Glossary On
Versions: 1 2 3 4 5 6 7 8 9 10 11 12 13 14 15 16 17 18 19 20 21 22 23 24 25 26 27 28
000
ASUS45 KSLC 191310
RWRUT

UTAH REGIONAL WEATHER ROUNDUP
NATIONAL WEATHER SERVICE SALT LAKE CITY UT
700 AM MDT SAT APR 19 2014

UTZ001>011-023>025-191400-

NORTHERN UTAH

CITY           SKY/WX    TMP DP  RH WIND       PRES   REMARKS
HILL AFB       MOCLDY    48  35  61 E12       30.00R
LOGAN          CLOUDY    37  34  89 CALM      30.02S
OGDEN          MOCLDY    47  37  68 CALM      29.99R
PROVO AIRPORT  MOCLDY    43  36  75 CALM      30.03R
SALT LAKE CITY PTCLDY    46  45  96 S6        29.99R
VERNAL         MOCLDY    46  34  62 W6        30.02R
WENDOVER       CLEAR     46  30  53 CALM      30.00R
HEBER CITY     PTCLDY    36  30  80 CALM      30.03S
WEST JORDAN    CLOUDY    46  39  76 SW7       30.00S

$$

UTZ012>022-026-027-191400-

SOUTHERN UTAH

CITY           SKY/WX    TMP DP  RH WIND       PRES   REMARKS
BRYCE CANYON   PTCLDY    36  29  75 W8        30.14R WCI  30
CEDAR CITY     MOCLDY    46  28  49 CALM      30.04R
MILFORD        PTCLDY    48  27  44 S13       30.02R
MOAB/CYNLANDS  CLOUDY    52  47  83 E5        30.03S
PRICE          CLOUDY    52  33  48 E9        30.05R
ST GEORGE      MOSUNNY   59  37  44 SE10      30.00R
KANAB          CLOUDY    48  36  61 CALM      30.10R

$$

REGIONAL REPORTS     COLORADO/ARIZONA

CITY           SKY/WX    TMP DP  RH WIND       PRES   REMARKS
CRAIG, CO      CLOUDY    37  32  82 SE3       30.08R
GRAND JUNCTION LGT RAIN  53  41  63 N10       30.06R
RIFLE          CLOUDY    48  36  63 E3        30.07R
MONTROSE       CLOUDY    51  36  56 CALM      30.10R
CORTEZ         MOCLDY    45  44  97 CALM      30.12S
PAGE, AZ       CLOUDY    56  39  53 CALM      30.03S
GRAND CANYON   PTCLDY    34  32  92 NE3       30.11R
KINGMAN        PTCLDY    52  45  77 E6        29.98S
FLAGSTAFF      CLEAR     29  27  92 CALM      30.12R

$$

REGIONAL REPORTS    NEVADA/IDAHO/WYOMING

CITY           SKY/WX    TMP DP  RH WIND       PRES   REMARKS
LAS VEGAS, NV  PTCLDY    64  39  39 S8        29.90R
ELY            CLEAR     36  23  59 S6        30.05R WCI  31
ELKO           PTCLDY    35  25  66 CALM      30.02R
POCATELLO, ID  CLEAR     27  20  75 CALM      30.03R
BURLEY         PTCLDY    31  28  89 CALM      30.00R
EVANSTON, WY   PTCLDY    38  31  76 N3        30.07R
ROCK SPRINGS   CLOUDY    40  28  62 CALM      30.07R

$$



USA.gov is the U.S. government's official web portal to all federal, state and local government web resources and services.